Flight Track Log - Related Links

Times and Time Zones

All times are in EST time to prevent confusion due to time zone crossing. See the N121JM flight status page for this flight to view local times or setup timezone preferences in your user account.

Time Position Orientation Groundspeed Altitude Reporting Facility
EST Latitude Longitude Course Direction KTS MPH feet Rate Location/Type
12:03AM 40.8516 -74.0593 27° Northeast 164 189  Level FlightAware ADS-B
12:04AM 40.8645 -74.0550 14° North 168 193 400 1,364 Climbing FlightAware ADS-B
12:04AM 40.8682 -74.0522 30° Northeast 176 203 500 1,333 Climbing FlightAware ADS-B
12:04AM 40.8708 -74.0499 34° Northeast 183 211 600 1,714 Climbing FlightAware ADS-B
12:04AM 40.8778 -74.0432 36° Northeast 186 214 900 1,500 Climbing FlightAware ADS-B
12:04AM 40.8819 -74.0397 33° Northeast 180 207 1,000 1,091 Climbing FlightAware ADS-B
12:04AM 40.8856 -74.0370 29° Northeast 178 205 1,100 1,800 Climbing FlightAware ADS-B
12:04AM 40.8894 -74.0347 25° Northeast 177 204 1,300 2,000 Climbing FlightAware ADS-B
12:04AM 40.8927 -74.0333 18° North 177 204 1,400 750 Climbing FlightAware ADS-B
12:04AM 40.8954 -74.0326 11° North 176 203 1,400 667 Level FlightAware ADS-B
12:04AM 40.8993 -74.0322 North 175 201 1,500 1,500 Climbing FlightAware ADS-B
12:04AM 40.9019 -74.0324 357° North 175 201 1,600 1,714 Climbing FlightAware ADS-B
12:05AM 40.9053 -74.0333 349° North 175 201 1,700 1,714 Climbing FlightAware ADS-B
12:05AM 40.9077 -74.0344 341° North 175 201 1,800 1,714 Climbing FlightAware ADS-B
12:05AM 40.9103 -74.0359 336° Northwest 174 200 1,900 1,500 Climbing FlightAware ADS-B
12:05AM 40.9129 -74.0381 327° Northwest 173 199 2,000 1,500 Climbing FlightAware ADS-B
12:05AM 40.9156 -74.0408 323° Northwest 175 201 2,100 1,500 Climbing FlightAware ADS-B
12:05AM 40.9179 -74.0441 313° West 175 201 2,200 1,333 Climbing FlightAware ADS-B
12:05AM 40.9202 -74.0485 305° West 178 205 2,300 1,200 Climbing FlightAware ADS-B
12:05AM 40.9218 -74.0532 294° West 181 208 2,400 1,333 Climbing FlightAware ADS-B
12:05AM 40.9227 -74.0581 284° West 184 212 2,500 1,200 Climbing FlightAware ADS-B
12:05AM 40.9228 -74.0652 271° West 188 216 2,600 1,636 Climbing FlightAware ADS-B
12:05AM 40.9222 -74.0703 261° West 193 222 2,800 1,333 Climbing FlightAware ADS-B
12:05AM 40.9210 -74.0753 252° West 199 229 2,800 1,091 Level FlightAware ADS-B
12:05AM 40.9178 -74.0830 241° Southwest 209 241 3,000 938 Climbing FlightAware ADS-B
12:06AM 40.8994 -74.1057 223° Southwest 231 266 3,300 750 Climbing FlightAware ADS-B
12:06AM 40.8935 -74.1122 220° Southwest 230 265 3,400 783 Climbing FlightAware ADS-B
12:06AM 40.8808 -74.1274 222° Southwest 234 269 3,600 387 Climbing FlightAware ADS-B
12:07AM 40.8680 -74.1420 221° Southwest 242 278 3,600  Level FlightAware ADS-B
12:07AM 40.8576 -74.1531 219° Southwest 251 289 3,600  Level FlightAware ADS-B
12:07AM 40.8293 -74.1852 221° Southwest 254 292 3,600  Level FlightAware ADS-B
12:07AM 40.8144 -74.2018 220° Southwest 264 304 3,600  Level FlightAware ADS-B
12:08AM 40.7951 -74.2227 219° Southwest 264 304 3,600  Level FlightAware ADS-B
12:08AM 40.7812 -74.2386 221° Southwest 261 300 3,600  Level FlightAware ADS-B
12:08AM 40.7593 -74.2635 221° Southwest 260 299 3,600  Level FlightAware ADS-B
12:09AM 40.7431 -74.2814 220° Southwest 259 298 3,600  Level FlightAware ADS-B
12:09AM 40.7287 -74.2974 220° Southwest 257 296 3,600  Level FlightAware ADS-B
12:09AM 40.7148 -74.3131 221° Southwest 258 297 3,600 436 Level FlightAware ADS-B
12:10AM 40.6833 -74.3500 221° Southwest 259 298 4,000 240 Climbing New York TRACON
12:11AM 40.6333 -74.4167 225° Southwest 263 303 4,000  Level New York TRACON
12:12AM 40.5667 -74.4667 210° Southwest 262 302 4,000 -83 Level New York TRACON
12:17AM 40.2694 -74.7521 210° Southwest 257 296 3,500 -79 Descending FlightAware ADS-B (KWWD)
12:18AM 40.1989 -74.8195 216° Southwest 246 283 3,500  Level FlightAware ADS-B (KWWD)
12:19AM 40.1793 -74.8384 216° Southwest 244 281 3,500 146 Level FlightAware ADS-B (KWWD)
12:19AM 40.1609 -74.8563 217° Southwest 242 278 3,600  Climbing FlightAware ADS-B (KWWD)
12:19AM 40.1424 -74.8739 216° Southwest 245 282 3,500 -150 Descending FlightAware ADS-B (KWWD)
12:20AM 40.1233 -74.8919 216° Southwest 245 282 3,500  Level FlightAware ADS-B (KWWD)
12:20AM 40.1039 -74.9100 216° Southwest 247 284 3,500  Level FlightAware ADS-B (KWWD)
12:20AM 40.0849 -74.9277 216° Southwest 245 282 3,500  Level FlightAware ADS-B (KWWD)
12:21AM 40.0670 -74.9447 216° Southwest 239 275 3,500  Level FlightAware ADS-B (KWWD)
12:21AM 40.0494 -74.9615 216° Southwest 225 259 3,500  Level FlightAware ADS-B (KWWD)
12:21AM 40.0328 -74.9774 216° Southwest 224 258 3,500 -300 Level FlightAware ADS-B (KWWD)
12:22AM 40.0160 -74.9935 216° Southwest 219 252 3,300 -615 Descending FlightAware ADS-B (KWWD)
12:22AM 40.0009 -75.0092 218° Southwest 210 242 3,100 -600 Descending FlightAware ADS-B (KWWD)
12:22AM 39.9864 -75.0253 220° Southwest 192 221 2,900 -878 Descending FlightAware ADS-B (KWWD)
12:23AM 39.9716 -75.0403 218° Southwest 198 228 2,500 -923 Descending FlightAware ADS-B (KWWD)
12:23AM 39.9579 -75.0533 216° Southwest 185 213 2,300 -750 Descending FlightAware ADS-B (KWWD)
12:23AM 39.9439 -75.0676 218° Southwest 184 212 2,000 -585 Descending FlightAware ADS-B (KWWD)
12:24AM 39.9307 -75.0812 218° Southwest 172 198 1,900 -450 Descending FlightAware ADS-B (KWWD)
12:24AM 39.9179 -75.0956 221° Southwest 178 205 1,700 -474 Descending FlightAware ADS-B (KWWD)
12:24AM 39.9080 -75.1095 227° Southwest 180 207 1,600 -462 Descending FlightAware ADS-B (KWWD)
12:25AM 39.9000 -75.1500 227° Southwest 153 176 1,200 -722 Descending Philadelphia TRACON
12:26AM 39.8833 -75.2000 247° West 141 162 300 -885 Descending Philadelphia TRACON
12:28AM 39.8667 -75.2333 232° Southwest  Level FlightAware Approximate

Login

Don't have an account? Register now (free) for customized features, flight alerts, and more!